Grayling, MI

8:03 PM EDT on May 25, 2017 (GMT -0400)
Grayling

Weather History for KGOV - July, 2014

Change the Weather History Date:

Saturday, July 12, 2014

  Actual Average (KHTL) Record (KHTL)
Temperature  
Mean Temperature 66 °F -  
Max Temperature 78 °F 79 °F 104 °F (1936)
Min Temperature 55 °F 54 °F 31 °F (1926)
Cooling Degree Days 2    
Growing Degree Days 16 (Base 50)    
Moisture  
Dew Point 62 °F    
Average Humidity 82    
Maximum Humidity 100    
Minimum Humidity 56    
Precipitation  
Precipitation 0.00 in - - ()
Sea Level Pressure  
Sea Level Pressure 30.03 in    
Wind  
Wind Speed 3 mph (SSW)    
Max Wind Speed 10 mph    
Max Gust Speed 16 mph    
Visibility 9 miles    
Events Rain    
Averages and records for this station are not official NWS values.
T = Trace of Precipitation, MM = Missing Value Source: NWS Daily Summary

Daily Weather History Graph

Daily Weather History Graph

Search for Another Location

Airport or City:

Trip Planner

Search our weather history database for the weather conditions in past years. The results will help you decide how hot, cold, wet, or windy it might be!

Date:

Astronomy

Jul. 12, 2014 Rise Set
Actual Time 6:05 AM EDT 9:23 PM EDT
Civil Twilight 5:29 AM EDT 9:59 PM EDT
Nautical Twilight 4:42 AM EDT 10:46 PM EDT
Astronomical Twilight 3:43 AM EDT 11:43 PM EDT
Moon 9:19 PM EDT (7/12) 6:27 AM EDT (7/12)
Length of Visible Light 16h 30m
Length of Day
15h 18m
Full, 100% of the Moon is Illuminated
Jul 12
Full
Jul 18
Last Quarter
Jul 26
New
Aug 3
First Quarter
Aug 10
Full

Hourly Weather History & Observations

Time (EDT) Temp. Dew Point Humidity Pressure Visibility Wind Dir Wind Speed Gust Speed Precip Events Conditions
12:16 AM 60.4 °F 57.0 °F 88% 30.16 in 10.0 mi Calm Calm - N/A   Clear
12:36 AM 59.4 °F 57.0 °F 92% 30.15 in 10.0 mi Calm Calm - N/A   Clear
12:56 AM 57.7 °F 56.8 °F 97% 30.14 in 10.0 mi South 3.5 mph - N/A   Clear
1:16 AM 57.9 °F 57.4 °F 98% 30.14 in 10.0 mi South 3.5 mph - N/A   Clear
1:36 AM 58.1 °F 55.9 °F 93% 30.14 in 10.0 mi Calm Calm - N/A   Clear
1:56 AM 55.4 °F 54.9 °F 98% 30.14 in 10.0 mi Calm Calm - N/A   Clear
2:16 AM 57.0 °F 57.0 °F 100% 30.14 in 7.0 mi Calm Calm - N/A   Mostly Cloudy
2:36 AM 57.2 °F 57.0 °F 99% 30.13 in 10.0 mi Calm Calm - N/A   Overcast
2:56 AM 57.7 °F 57.6 °F 99% 30.13 in 10.0 mi Calm Calm - N/A   Overcast
3:16 AM 59.0 °F 57.9 °F 96% 30.13 in 10.0 mi Calm Calm - N/A   Overcast
3:56 AM 60.1 °F 58.6 °F 95% 30.11 in 10.0 mi Calm Calm - N/A   Overcast
4:16 AM 59.0 °F 57.4 °F 94% 30.11 in 10.0 mi Calm Calm - N/A   Scattered Clouds
4:36 AM 57.4 °F 57.2 °F 99% 30.11 in 10.0 mi Calm Calm - N/A   Clear
4:56 AM 55.4 °F 55.4 °F 100% 30.10 in 10.0 mi Calm Calm - N/A   Clear
5:16 AM 55.8 °F 55.2 °F 98% 30.10 in 10.0 mi Calm Calm - N/A   Clear
5:36 AM 55.4 °F 55.2 °F 99% 30.09 in 10.0 mi Calm Calm - N/A   Clear
5:56 AM 55.4 °F 55.4 °F 100% 30.09 in 10.0 mi Calm Calm - N/A   Clear
6:16 AM 55.0 °F 54.5 °F 98% 30.08 in 10.0 mi Calm Calm - N/A   Clear
6:36 AM 55.0 °F 54.9 °F 99% 30.09 in 10.0 mi Calm Calm - N/A   Clear
6:56 AM 55.4 °F 54.9 °F 98% 30.08 in 10.0 mi Calm Calm - N/A   Clear
7:16 AM 58.8 °F 57.2 °F 94% 30.08 in 10.0 mi Calm Calm - N/A   Scattered Clouds
7:36 AM 62.2 °F 58.8 °F 89% 30.09 in 10.0 mi Calm Calm - N/A   Overcast
7:56 AM 65.5 °F 57.2 °F 75% 30.10 in 10.0 mi Calm Calm - N/A   Overcast
8:16 AM 68.0 °F 58.6 °F 72% 30.10 in 10.0 mi SW 3.5 mph - N/A   Overcast
8:36 AM 68.0 °F 58.6 °F 72% 30.10 in 10.0 mi SSW 5.8 mph - N/A   Overcast
8:56 AM 68.0 °F 57.4 °F 69% 30.10 in 10.0 mi SSW 5.8 mph - N/A   Overcast
9:16 AM 72.7 °F 59.7 °F 64% 30.09 in 10.0 mi SSW 8.1 mph - N/A   Scattered Clouds
9:55 AM 72.9 °F 57.6 °F 59% 30.09 in 10.0 mi SSW 8.1 mph - N/A   Mostly Cloudy
10:16 AM 75.4 °F 59.5 °F 58% 30.08 in 10.0 mi SSW 6.9 mph - N/A   Scattered Clouds
10:36 AM 75.4 °F 59.5 °F 58% 30.08 in 10.0 mi SW 8.1 mph - N/A   Scattered Clouds
10:55 AM 75.4 °F 60.1 °F 59% 30.07 in 10.0 mi SSW 6.9 mph - N/A   Scattered Clouds
11:16 AM 75.4 °F 60.6 °F 60% 30.08 in 10.0 mi SW 8.1 mph - N/A   Mostly Cloudy
11:36 AM 75.9 °F 60.8 °F 59% 30.07 in 10.0 mi SW 9.2 mph - N/A   Overcast
11:55 AM 76.1 °F 60.8 °F 59% 30.06 in 10.0 mi SSW 5.8 mph - N/A   Mostly Cloudy
12:16 PM 77.9 °F 62.1 °F 58% 30.05 in 10.0 mi SSW 6.9 mph - N/A   Scattered Clouds
12:36 PM 77.9 °F 62.4 °F 59% 30.05 in 10.0 mi SSW 8.1 mph - N/A   Scattered Clouds
12:56 PM 78.1 °F 62.4 °F 58% 30.04 in 10.0 mi SW 8.1 mph - N/A   Mostly Cloudy
1:16 PM 78.3 °F 61.5 °F 56% 30.04 in 10.0 mi South 10.4 mph - N/A   Overcast
1:36 PM 75.7 °F 61.5 °F 61% 30.05 in 10.0 mi South 8.1 mph - N/A   Overcast
1:56 PM 75.4 °F 61.9 °F 63% 30.05 in 10.0 mi South 6.9 mph - N/A   Overcast
2:16 PM 77.7 °F 63.5 °F 61% 30.05 in 10.0 mi SSW 6.9 mph - N/A   Overcast
2:36 PM 75.7 °F 61.5 °F 61% 30.04 in 10.0 mi South 9.2 mph - N/A   Overcast
2:56 PM 76.5 °F 61.2 °F 59% 30.04 in 10.0 mi SSW 8.1 mph - N/A   Mostly Cloudy
3:16 PM 75.7 °F 61.5 °F 61% 30.04 in 10.0 mi SSW 8.1 mph - N/A   Scattered Clouds
3:36 PM 76.1 °F 62.6 °F 63% 30.02 in 10.0 mi South 3.5 mph - N/A   Scattered Clouds
3:56 PM 76.3 °F 63.0 °F 63% 30.01 in 10.0 mi South 4.6 mph - N/A   Mostly Cloudy
4:16 PM 77.9 °F 64.6 °F 63% 30.01 in 10.0 mi South 4.6 mph - N/A   Scattered Clouds
4:36 PM 76.5 °F 63.1 °F 63% 30.00 in 10.0 mi South 5.8 mph - N/A   Mostly Cloudy
4:55 PM 75.6 °F 63.1 °F 65% 29.99 in 10.0 mi South 5.8 mph - N/A   Overcast
5:16 PM 75.9 °F 63.1 °F 64% 29.98 in 10.0 mi South 8.1 mph - N/A   Overcast
5:36 PM 76.5 °F 63.5 °F 64% 29.98 in 10.0 mi South 9.2 mph - N/A   Overcast
5:56 PM 75.4 °F 63.9 °F 67% 29.97 in 10.0 mi South 9.2 mph 16.1 mph N/A   Overcast
6:16 PM 74.8 °F 66.4 °F 75% 29.97 in 10.0 mi South 4.6 mph - N/A Rain Rain
6:36 PM 71.1 °F 69.4 °F 95% 29.97 in 4.0 mi South 5.8 mph - N/A Rain Light Rain
6:56 PM 69.4 °F 68.7 °F 98% 29.96 in 7.0 mi SSE 4.6 mph - N/A Rain Light Rain
7:16 PM 70.0 °F 69.8 °F 99% 29.95 in 7.0 mi Calm Calm - N/A   Overcast
7:36 PM 70.2 °F 69.8 °F 99% 29.94 in 7.0 mi South 3.5 mph - N/A   Overcast
7:56 PM 70.2 °F 69.8 °F 99% 29.94 in 7.0 mi Calm Calm - N/A   Overcast
8:16 PM 70.3 °F 70.2 °F 99% 29.93 in 5.0 mi Calm Calm - N/A   Overcast
8:36 PM 70.3 °F 70.3 °F 100% 29.92 in 4.0 mi South 5.8 mph - N/A Rain Rain
8:56 PM 69.1 °F 69.1 °F 100% 29.91 in 4.0 mi SSW 5.8 mph - N/A Rain Rain
9:16 PM 68.0 °F 68.0 °F 100% 29.89 in 4.0 mi SSW 8.1 mph - N/A Rain Heavy Rain
9:36 PM 68.0 °F 68.0 °F 100% 29.89 in 7.0 mi South 3.5 mph - N/A Rain Light Rain
9:55 PM 68.2 °F 68.2 °F 100% 29.88 in 5.0 mi South 3.5 mph - N/A Rain Light Rain
10:16 PM 68.0 °F 68.0 °F 100% 29.87 in 7.0 mi South 4.6 mph - N/A   Mostly Cloudy
10:36 PM 68.0 °F 68.0 °F 100% 29.86 in 7.0 mi South 3.5 mph - N/A   Overcast
10:55 PM 68.0 °F 68.0 °F 100% 29.85 in 7.0 mi SSW 3.5 mph - N/A   Overcast
11:16 PM 68.0 °F 68.0 °F 100% 29.84 in 2.5 mi Calm Calm - N/A Rain Rain
11:36 PM 68.0 °F 68.0 °F 100% 29.84 in 2.0 mi NW 4.6 mph - N/A Rain Heavy Rain
11:55 PM 68.0 °F 68.0 °F 100% 29.83 in 7.0 mi Calm Calm - N/A Rain Light Rain